Regional Weather Roundup
Issued by NWS Cleveland, OH

Home | Current Version | Previous Version | Graphics & Text | Print | Product List | Glossary On
Versions: 1 2 3 4 5 6 7 8 9 10 11 12 13 14 15 16 17 18 19 20 21 22 23 24 25 26 27 28 29 30 31 32 33 34 35 36 37 38 39 40 41 42 43 44 45 46 47 48 49 50
077
ASUS41 KCLE 082012
RWRCLE
OHIO REGIONAL WEATHER ROUNDUP
NATIONAL WEATHER SERVICE WILMINGTON, OH
300 PM EST MON FEB 08 2016

NOTE: "FAIR" INDICATES FEW OR NO CLOUDS BELOW 12,000 FEET WITH NO
SIGNIFICANT WEATHER AND/OR OBSTRUCTIONS TO VISIBILITY.

OHZ001>008-015>018-024>027-034-035-043-044-082100-
   NORTHWEST OHIO

CITY           SKY/WX    TMP DP  RH WIND       PRES   REMARKS
DEFIANCE       CLOUDY    40  28  62 NW10      29.59R
FINDLAY        CLOUDY    41  30  65 W14G20    29.57R
TOLEDO EXPRESS CLOUDY    41  27  57 NW10      29.56S
TOLEDO EXEC    PTSUNNY   42  26  53 W5        29.57F
LIMA           MIX PCPN  37  31  78 W12       29.58R
$$

OHZ009>014-019>023-028>033-038-089-082100-
   NORTHEAST OHIO

CITY           SKY/WX    TMP DP  RH WIND       PRES   REMARKS
CLE-HOPKINS    LGT SNOW  33  31  92 W8        29.58S VSB 1   WCI  26
CLE-LAKEFRONT  SNOW      33  32  96 W7        29.55S VSB 1/4 WCI  27
CUY CO. ARPT   LGT SNOW  34  32  93 CALM      29.55S VSB 3/4
LORAIN-ELYRIA  LGT SNOW  33  31  92 NW7       29.57S VSB 3/4 WCI  27
ASHTABULA      MIX PCPN  37  35  92 SE7       29.54F
AKRON-CANTON   LGT SNOW  34  31  88 SW8       29.54R VSB 1   WCI  27
WOOSTER        LGT SNOW  33  31  92 W10       29.56R FOG     WCI  25
MANSFIELD      LGT SNOW  35  33  92 CALM      29.55S FOG
YOUNGSTOWN     LGT RAIN  37  33  85 S8        29.54S FOG
$$

OHZ042-051>053-060>062-070>072-077>081-082100-
  SOUTHWEST OHIO

CITY           SKY/WX    TMP DP  RH WIND       PRES   REMARKS
CINC-COVINGTON LGT SNOW  34  32  93 NW8       29.63S FOG     WCI  27
CINC-LUNKEN    FLURRIES  35  34  96 W9        29.66R WCI  28
HAMILTON       CLOUDY    40  30  67 W9        29.63S
DAYTON         PTSUNNY   40  29  64 W8        29.59S
WRIGHT-PAT AFB PTSUNNY   38  33  79 NW6       29.59S
DAYTON GENERAL CLOUDY    39  28  64 NW7       29.59S
WILMINGTON     PTSUNNY   36  33  89 W8        29.60S
$$

OHZ036-037-039>041-045>050-054>059-063>069-073>076-082>088-082100-
  CENTRAL AND SOUTHEAST OHIO

CITY           SKY/WX    TMP DP  RH WIND       PRES   REMARKS
COLUMBUS       SNOW      32  32 100 W5        29.59S VSB 1/2 WCI  27
OSU AIRPORT    LGT SNOW  34  33  96 W6        29.58S FOG     WCI  29
BOLTON FIELD   LGT SNOW  34  34 100 NW7       29.59F WCI  28
RICKENBACK AFB LGT SNOW  32  32 100 NW5       29.60R WCI  27
NEWARK         LGT RAIN  37  33  85 SW7       29.58R
MARION         LGT SNOW  37  29  72 NW6G17    29.57S
LANCASTER      LGT SNOW  34  31  88 W5        29.60S FOG     WCI  30
ZANESVILLE     CLOUDY    39  33  79 NW6       29.59S
NEW PHILLY     FLURRIES  35  33  92 SW5       29.57R
$$




USA.gov is the U.S. government's official web portal to all federal, state and local government web resources and services.